Location: Foulognes
(49.1413°N, 0.8183°W)
Time: 21:25:04
(UTC+00:00)

STARLINK-64 - Pass Details

Date: 21 October 2019
Orbit: 545 x 555 km, 53.0° (Epoch: 18 November)

Event Time Altitude Azimuth Distance (km) Brightness Sun altitude
Rises 18:47:29 0° 284° (WNW) 2,734 8.8 -17.9°
Reaches altitude 10° 18:49:47 10° 289° (WNW) 1,839 7.5 -18.2°
Maximum altitude 18:53:52 50° 6° (N) 712 4.1 -18.9°
Enters shadow 18:54:55 39° 52° (NE) 839 4.2 -19.1°
